Location: Altleiningen
(49.5078°N, 8.0741°E)
Time: 04:16:44
(UTC+00:00)

Cosmos 1953 - Pass Details

Date: 14 June 2025
Orbit: 485 x 500 km, 82.5° (Epoch: 12 July)

Event Time Altitude Azimuth Distance (km) Brightness Sun altitude
Rises 20:47:50 0° 360° (N) 2,603 6.7 -8.9°
Reaches altitude 10° 20:50:15 10° 14° (NNE) 1,716 5.4 -9.2°
Maximum altitude 20:53:22 24° 71° (ENE) 1,067 3.6 -9.5°
Enters shadow 20:56:07 12° 123° (ESE) 1,587 4.1 -9.7°
